CZ-4C DEB, 45483

Orbit data source: Space-Track

CZ-4C DEB, 45483 is space debris in LEO originally from a launch on Tue, 10 Apr 2018 UTC launched from the Jiuquan Satellite Launch Center, China (JSC). Debris objects in space refer to the collection of defunct objects orbiting the Earth. Examples of debris include non-operational satellites, rocket bodies, and fragments generated from explosions, collisions, or faulty payload assembly.

Loading next visibility...
Identifier
45483, 2018-034L
Orbit
LEO
Country
Flag of CNCN / PRC
Related business
Manufacturer
Unknown
Mission
Spacecraft
Bus & Motor
Unknown
Mass
Unknown
Launch date (UTC)
2018-04-10 (8 years ago)
Launch vehicle
Unknown
Launch site
Jiuquan Satellite Launch Center, China (JSC)
Object type
Payload
Rocket body
Debris
Shape & HBR
Unknown shape, 0.1 m
Radar Cross Section
Small (<0.1 m²)

Expand to show TLE details & history
Last TLE update: 6 days ago

TLE from 6 days ago
0 CZ-4C DEB
1 45483U 18034L   26167.09644054 -.00000024  00000-0  91452-4 0  9996
2 45483  63.3964 111.7962 0270398   7.0878 353.3851 13.44341462364365
Epoch: 2026-06-16T02:18Z
TLE epoch observation values (Epoch: 2026-06-16T02:18:52.462Z)
Latitude
-0.00003°
Longitude
172.70421°
Altitude
894.296 km
Speed
7.504 km/s
True Right ascension
07h 27m 11s
True Declination
0° 00' 00"
Sunlit
Object was in daylight at epoch
Visualization orbit readout
Latitude
Unknown
Longitude
Unknown
Altitude
Unknown
Speed
Unknown
Apparent Right ascension
Unknown
Apparent Declination
Unknown
Sunlit
N/A
Visualization observer readout
Local Sidereal Time
21:42:53
Azimuth
Unknown
Elevation
Unknown
Doppler factor
Unknown
Orbital elements
Apogee altitude
1,293.97 km
Perigee altitude
889.989 km
Semi-major axis
7,470.117 km
Eccentricity
0.02704
Inclination
63.3964°
RAAN
111.7962°
Arg. of periapsis
7.0878°
True anomaly
353.01578°
Mean anomaly
353.3851°
Eccentric anomaly
353.20171°
Mean motion
3.36165 °/min
Orbital period
107.09 mins
BSTAR
0.000091452
Loading maneuver chart data...
Computing Atmospheric mass density...
Loading historical data...
Loading historical data...
Loading historical data...
Loading historical data...
Loading historical data...
Loading historical data...
Loading historical data...

Documentation

Showing up to 5 results
|